Temp
8 8 8 8 8 8 8 8 9 8 9 8 7 6 6 7 7 6 6 6 6 6 7 7 8 8 8 7 6 9 9 9 8 9 10 10 10 13 13 15 15 15 14 14 15 16 16 22 23 23 23 22 22 22
8 8 8 8 8 9 8 8 9 9 9 8 6 7 7 7 7 7 6 6 6 5 6 8 7 7 8 9 8 6 8 8 9 8 9 8 10 11 12 12 15 14 15 16 17 18 19 20 20 21 20 21 21 21
8 8 9 9 9 9 8 8 9 9 9 9 7 7 7 7 7 7 7 6 5 5 7 8 9 9 7 7 8 7 8 9 9 10 8 9 9 10 10 12 13 15 15 14 16 18 18 19 20 21 20 20 20 20
8 8 8 9 9 8 8 8 9 9 9 8 7 7 7 7 7 7 7 7 6 5 6 8 8 8 8 8 7 8 9 9 9 8 7 7 8 10 10 12 11 13 13 14 15 16 17 19 20 20 20 20 20 19
8 8 8 8 9 8 7 8 9 10 9 9 7 7 7 7 8 7 7 7 6 6 6 7 8 9 8 8 7 8 8 9 8 7 7 8 8 8 10 10 10 13 13 13 15 17 15 16 18 19 19 20 19 18
8 9 9 9 9 8 7 9 10 9 9 9 7 7 7 7 7 7 7 7 5 6 6 7 9 9 9 8 8 8 8 8 7 7 8 8 11 9 9 10 13 14 14 14 14 15 14 16 16 18 19 19 18 18
9 9 9 9 9 8 9 10 9 9 9 8 7 7 8 7 7 7 7 7 6 5 6 7 8 10 10 9 8 7 7 7 6 6 7 8 10 9 9 9 12 14 14 13 14 13 13 15 16 19 17 18 16 17
9 9 8 9 9 9 10 9 10 9 9 7 7 8 9 7 7 7 7 6 6 6 5 6 8 8 9 10 10 8 7 7 7 7 8 10 10 9 9 10 12 12 10 10 11 12 12 14 16 14 15 17 16 18
9 8 9 10 10 10 10 10 10 9 8 7 8 8 7 7 7 7 7 6 6 6 5 5 7 9 8 9 9 9 7 7 8 7 9 9 9 10 10 10 10 11 10 11 13 13 14 14 15 14 14 15 16 17
9 10 10 10 10 11 11 10 9 7 8 9 8 9 10 8 7 7 6 6 6 6 5 5 4 6 6 8 9 9 10 9 9 8 8 8 8 9 9 9 9 10 10 11 10 12 13 14 15 14 14 15 16 17
10 10 11 11 12 11 11 10 10 7 10 8 8 10 7 8 8 8 8 8 7 6 5 5 5 6 7 8 9 9 8 7 9 9 8 8 8 9 11 13 13 13 12 14 14 14 12 12 14 14 14 15 17 17
10 11 12 12 12 11 12 12 11 10 7 7 7 7 7 10 10 11 10 9 8 9 9 8 9 7 8 8 10 9 8 7 10 10 9 9 8 9 11 11 11 11 12 13 14 13 13 13 14 14 14 14 14 15
11 12 13 12 12 13 14 14 12 11 8 8 9 11 11 11 9 10 9 9 11 12 13 11 12 11 11 11 11 11 12 11 11 10 9 8 9 9 9 10 10 10 10 10 10 11 12 12 12 12 12 12 13 14
11 13 14 13 13 15 16 16 14 13 12 12 11 9 11 10 10 9 9 10 11 12 12 11 12 11 11 12 12 12 12 11 12 10 9 9 8 8 9 9 9 9 10 9 10 10 11 10 10 9 9 10 12 11
13 14 14 14 16 17 17 17 17 15 12 13 12 10 12 12 12 12 11 11 13 14 13 12 13 13 12 13 11 11 13 11 9 9 9 9 8 8 8 9 9 9 8 9 9 9 9 9 9 8 8 9 10 10
14 14 14 15 16 17 18 17 17 15 13 14 13 12 13 13 13 13 12 12 14 13 14 15 14 14 13 12 11 11 10 11 11 10 9 9 8 8 8 9 9 10 10 10 9 9 10 10 10 9 9 9 9 9
15 14 14 15 17 18 18 17 16 13 14 14 13 12 11 11 11 13 13 13 13 15 14 14 11 11 12 11 10 11 10 9 9 8 8 9 8 8 9 9 8 9 9 9 10 10 10 11 10 10 9 8 8 8
14 14 14 15 16 17 17 16 15 15 14 12 13 13 13 12 12 13 13 13 14 13 13 12 12 9 9 9 10 9 10 10 9 9 8 8 8 8 8 9 8 8 9 9 10 9 10 10 11 11 10 9 9 9
14 15 15 15 15 15 14 14 14 14 14 14 13 12 12 12 13 13 14 13 12 12 13 12 12 10 10 10 10 10 11 11 10 9 10 9 8 8 8 9 9 9 9 8 9 10 9 8 9 10 10 10 9 9
14 14 14 14 15 14 15 14 12 15 15 14 12 14 13 13 13 14 14 13 13 13 12 12 11 11 10 11 10 10 10 10 11 12 11 10 9 9 8 8 8 9 10 9 9 8 10 9 8 7 7 8 8 8
14 14 15 14 14 14 14 14 14 13 13 14 12 13 13 13 13 13 13 13 13 11 11 10 11 11 9 9 9 9 10 10 10 10 10 11 10 9 9 9 9 9 9 9 9 9 8 7 7 7 7 7 7 6
13 13 13 14 13 13 14 11 14 12 14 13 13 13 13 13 13 13 12 13 12 11 10 10 11 11 11 10 9 8 7 8 8 9 8 9 10 10 9 8 9 9 8 8 7 7 7 7 7 7 7 6 6 6
13 13 13 13 15 12 12 11 14 14 14 13 13 14 13 13 12 11 12 12 12 11 10 10 9 8 9 8 8 7 7 8 9 9 8 8 8 8 8 7 7 8 8 7 6 7 6 6 6 7 7 7 7 6
12 12 13 13 13 12 14 14 13 13 13 13 13 13 13 13 12 13 12 12 13 11 12 10 9 11 10 9 10 8 7 7 9 8 7 8 9 8 7 7 7 6 6 7 7 7 7 7 7 7 7 7 6 6
12 12 12 9 13 15 16 15 15 15 14 13 13 14 13 12 13 12 12 13 13 13 12 11 10 10 11 11 9 8 6 7 8 9 6 6 7 8 8 7 7 6 6 7 7 7 7 6 6 6 6 6 5 5
12 14 13 15 14 15 15 16 15 15 15 15 14 13 12 12 13 13 13 13 12 13 13 12 12 11 11 9 9 9 7 6 7 8 6 5 5 7 7 8 8 7 5 5 6 7 6 6 6 6 6 5 4 5
14 16 14 11 13 13 14 14 14 14 15 15 14 14 14 13 14 14 13 12 12 12 10 9 10 10 10 9 7 6 6 5 5 5 4 4 4 4 4 5 6 5 4 5 6 6 6 6 6 5 5 5 5 4
16 14 17 15 14 14 16 15 15 15 16 14 14 14 14 14 15 15 14 11 11 10 10 9 8 8 8 7 6 6 6 6 5 4 4 4 4 4 3 4 4 4 4 4 5 5 5 5 5 5 5 4 4 4
16 15 15 16 16 15 16 17 17 16 15 15 15 15 15 14 13 13 11 10 11 9 10 9 7 6 6 5 5 5 6 6 6 6 6 6 5 5 3 3 4 4 4 5 4 4 4 4 4 4 4 4 3 3
17 15 16 16 17 18 18 17 16 14 13 14 13 12 12 12 11 10 10 10 10 10 11 9 8 8 8 8 7 6 5 5 5 5 6 5 4 3 3 3 3 3 3 4 5 4 3 4 3 4 3 3 3 4
15 15 16 17 18 17 16 14 12 12 12 13 12 13 13 11 10 10 9 9 9 9 9 9 8 8 8 8 7 7 7 5 4 4 4 4 3 3 3 3 3 3 3 4 4 4 4 4 3 3 3 3 3 3
16 16 17 18 18 15 14 15 15 15 14 13 13 12 12 12 12 11 9 8 8 9 9 9 10 9 7 7 6 5 5 5 5 5 4 4 4 3 3 3 3 3 3 3 3 3 3 3 3 3 3 3 3 3
17 16 16 17 16 16 15 15 15 15 14 14 14 13 13 14 13 11 9 9 9 10 10 9 8 7 7 7 6 6 5 5 5 5 4 4 4 3 3 3 3 3 3 3 3 3 3 3 3 3 3 3 3 2
Height
861 856 852 847 844 839 834 830 824 819 814 808 804 800 797 793 790 790 787 789 792 786 777 775 774 773 772 775 775 767 768 762 763 757 753 747 747 731 728 717 714 716 719 721 720 714 709 672 666 676 664 658 656 652
857 852 847 842 839 834 829 825 818 812 807 801 796 793 788 785 783 783 780 781 781 781 771 766 763 762 763 764 767 770 763 762 761 760 758 760 744 736 731 724 714 717 709 702 700 687 681 675 675 665 664 661 656 654
852 848 843 837 832 828 823 818 811 803 799 794 789 784 781 777 775 775 773 774 778 776 763 755 748 749 751 753 758 764 760 760 759 758 759 755 751 743 736 721 717 708 707 704 696 682 680 676 669 666 666 663 658 656
846 842 837 832 826 821 816 811 803 796 791 786 780 777 772 769 767 766 766 766 770 772 766 748 746 743 744 745 747 751 754 755 757 759 760 756 749 739 732 719 719 713 711 702 693 686 677 670 670 666 664 659 656 654
841 835 831 825 819 814 810 803 796 789 783 778 772 768 764 763 760 759 760 761 762 767 760 748 743 735 736 738 742 746 751 753 755 753 749 745 742 739 727 721 710 701 697 693 680 677 680 674 670 666 662 659 656 653
835 829 824 819 812 807 802 795 787 782 777 770 765 761 758 757 756 757 757 757 757 760 760 750 740 735 734 735 738 741 743 748 750 747 742 736 728 732 720 707 686 685 684 681 679 680 679 673 671 665 661 657 655 654
829 823 818 812 805 800 794 786 781 776 770 762 758 752 749 752 754 756 756 755 755 758 759 751 741 732 732 731 734 738 741 742 744 743 735 727 717 720 710 695 671 674 675 675 674 678 674 668 667 657 659 656 655 653
823 817 811 805 798 793 786 780 775 771 762 757 753 749 746 750 753 754 753 753 754 757 759 752 742 735 731 725 724 730 732 735 734 729 721 711 706 709 691 667 663 667 671 671 670 669 669 664 660 658 660 656 655 653
817 810 804 798 792 786 781 776 771 765 756 751 749 749 751 753 753 754 752 753 755 759 758 755 745 732 732 727 722 722 727 727 724 723 710 708 697 690 668 662 658 656 659 656 655 656 658 656 655 653 655 652 653 653
811 804 797 792 786 781 777 772 767 759 752 750 750 750 750 756 754 755 755 757 757 757 756 754 751 742 739 728 719 718 717 717 715 715 713 703 692 676 661 649 641 640 643 646 653 653 652 649 653 651 651 649 651 653
805 798 793 788 783 779 774 768 760 755 752 752 753 753 755 754 755 754 755 756 757 758 756 749 747 741 734 730 722 721 725 728 714 712 714 706 695 673 649 633 627 623 628 634 639 642 651 655 654 647 656 651 654 656
801 795 790 786 781 777 771 764 759 754 755 756 756 755 754 753 752 752 755 754 754 748 743 742 734 737 732 729 722 721 726 727 712 712 711 704 704 680 659 652 647 643 641 642 645 647 651 656 658 658 661 664 665 662
798 793 788 785 780 774 768 763 759 755 753 755 756 755 758 766 772 769 771 766 754 744 736 736 729 727 724 722 718 717 713 716 716 719 726 731 712 696 687 678 671 665 662 661 662 663 664 666 665 667 670 674 675 671
796 792 788 784 779 774 768 763 759 755 755 758 763 777 773 781 781 781 776 770 758 747 738 736 730 731 728 724 723 724 724 726 725 735 744 738 728 719 710 702 692 690 682 678 676 677 676 677 684 687 693 692 691 682
794 791 788 783 779 774 770 766 763 760 760 766 773 791 784 783 779 772 767 763 753 743 736 734 733 731 731 730 738 740 731 742 759 762 762 752 744 734 727 719 713 711 706 702 699 697 699 700 703 708 706 705 698 694
794 792 789 785 781 777 774 772 768 767 771 778 788 791 787 778 773 766 762 756 747 742 735 735 738 739 746 749 752 756 759 757 760 763 766 758 750 746 739 734 728 724 721 718 716 716 713 716 717 719 715 712 710 710
795 794 790 786 782 780 777 774 774 779 785 792 797 796 796 791 786 777 769 762 754 744 745 747 761 767 763 766 770 767 774 778 777 773 768 764 761 756 750 744 740 737 734 731 729 727 727 727 724 721 723 727 726 723
795 793 790 787 783 781 781 780 784 790 797 800 797 797 796 795 791 783 777 768 762 761 761 769 772 784 788 788 786 786 780 779 779 777 774 770 766 763 759 755 751 747 744 743 741 738 734 731 730 733 735 737 731 730
795 793 791 788 786 785 785 788 790 796 799 800 800 799 797 797 794 789 782 777 773 772 772 778 783 793 793 793 790 786 782 781 781 780 777 775 771 767 765 761 759 756 754 753 749 748 747 746 743 740 739 738 738 739
794 793 791 790 788 788 790 793 794 794 796 799 801 798 798 798 798 793 789 786 782 779 784 790 795 797 796 794 794 791 788 785 781 777 778 779 777 775 772 770 768 766 762 759 757 756 754 754 754 754 753 751 749 750
794 793 791 791 790 790 794 795 796 798 798 797 801 799 798 799 799 798 796 794 791 795 797 802 800 799 799 797 795 793 791 788 786 785 785 781 781 779 776 774 772 769 767 765 763 761 760 760 760 759 758 758 760 762
794 793 792 791 792 792 794 799 798 800 799 799 800 800 799 798 799 801 803 799 800 804 804 802 800 799 797 797 797 796 795 793 791 790 789 787 785 783 782 780 777 774 771 769 766 766 766 765 765 764 763 763 764 764
794 794 793 793 793 796 801 799 797 798 797 799 799 797 799 799 802 803 802 804 805 806 805 804 802 801 800 800 799 798 796 795 793 793 792 790 790 789 788 786 785 782 778 776 773 771 770 769 769 768 768 767 767 766
795 795 796 796 798 802 798 796 799 799 800 799 799 799 799 800 803 801 803 803 803 804 803 803 801 799 799 799 798 798 798 797 796 795 795 793 790 790 790 788 787 785 783 781 779 777 776 775 774 773 772 771 770 770
800 803 801 808 800 797 795 796 797 797 798 799 799 798 799 803 801 802 803 802 802 801 801 801 801 800 799 798 799 800 800 799 797 795 796 795 793 791 790 789 789 789 787 785 784 782 782 781 780 780 779 778 778 777
805 801 802 799 800 798 799 797 797 798 797 797 797 801 803 801 801 800 800 800 800 800 799 799 799 798 799 800 800 800 801 800 799 796 797 796 795 793 791 790 788 788 789 788 787 786 785 785 784 783 782 782 782 780
801 797 800 803 801 801 799 800 801 799 796 795 797 798 799 799 798 796 797 799 798 798 798 798 799 798 798 800 801 802 802 801 800 800 799 798 797 796 794 793 791 791 789 788 787 786 786 785 785 784 783 782 782 781
794 797 794 797 798 798 795 796 796 794 793 796 797 796 796 793 790 790 791 793 794 795 796 797 798 799 800 800 801 802 802 801 801 800 800 800 799 798 797 795 794 791 790 788 788 787 787 787 786 786 785 785 784 783
792 792 794 792 794 794 791 788 786 786 788 789 789 788 789 790 790 790 791 791 792 794 795 796 798 799 800 801 801 802 802 801 800 799 798 798 798 799 798 796 794 792 791 790 789 788 788 788 787 787 787 786 785 783
786 790 789 789 789 785 779 781 782 784 786 786 787 789 789 789 789 789 790 791 792 792 793 795 796 798 799 800 801 802 802 802 802 802 800 800 800 800 799 797 795 793 792 791 790 790 790 790 789 788 787 785 784 782
787 788 786 784 781 778 780 783 785 785 787 786 787 786 786 787 786 787 789 790 792 792 793 794 795 797 798 799 799 799 800 801 802 802 802 802 801 800 799 798 797 795 794 792 791 791 791 790 789 788 787 786 785 784
784 783 782 780 777 781 782 781 780 781 783 783 783 785 786 785 785 786 787 788 790 792 792 793 795 796 798 798 799 798 798 800 800 801 801 801 801 800 799 798 797 796 794 793 792 791 791 790 789 788 787 786 784 783
779 780 780 779 778 778 778 780 780 780 781 779 779 781 781 781 782 787 787 788 791 791 792 794 796 797 798 798 798 798 798 798 799 799 799 799 799 798 797 796 795 795 794 793 792 791 790 790 788 787 786 785 783 781
Wind_Speed
22 23 24 26 27 27 28 29 32 33 33 32 29 27 25 24 21 17 10 14 10 3 9 12 16 14 13 7 5 4 7 3 2 4 3 3 3 2 5 9 6 7 6 7 12 11 19 11 11 9 5 7 12 14
23 24 25 26 28 29 31 32 35 35 35 34 30 28 27 26 24 18 9 14 17 6 7 21 29 32 28 26 9 5 4 1 2 2 2 1 3 3 4 5 5 9 11 4 9 9 13 14 14 14 9 12 13 15
24 26 27 30 32 33 34 34 36 37 36 34 31 29 27 25 22 18 14 11 7 3 8 11 9 16 17 26 28 7 5 7 5 4 2 3 6 2 4 6 10 7 7 8 10 15 20 19 18 15 11 12 15 13
26 30 32 33 35 35 35 35 36 37 36 35 31 30 27 24 19 16 15 14 11 0 3 5 5 11 11 13 22 32 19 5 2 4 4 3 3 6 4 8 8 7 8 8 12 17 19 20 17 14 12 12 10 6
29 31 33 35 36 37 36 36 37 37 36 33 34 30 27 20 15 12 13 15 18 6 3 7 23 5 4 13 18 22 23 16 5 3 4 3 3 4 5 8 10 11 11 7 10 6 10 16 13 15 12 11 5 3
32 34 35 36 37 37 36 36 36 36 34 34 34 32 22 10 7 0 2 2 10 17 1 3 4 3 4 6 13 15 14 8 5 4 4 4 12 4 4 5 8 13 16 16 15 11 17 19 18 20 14 8 4 4
34 35 36 37 37 36 35 35 35 33 34 37 33 26 13 7 10 3 3 1 8 15 2 3 4 2 4 2 4 4 12 4 4 2 4 6 9 6 3 13 20 16 14 16 16 11 18 19 14 11 10 10 5 5
35 36 36 36 34 33 33 35 32 32 39 35 24 10 5 10 6 6 13 10 12 2 1 3 4 4 3 2 2 4 5 5 5 3 3 5 4 4 7 15 14 13 14 16 17 19 20 19 14 3 9 12 8 8
36 37 35 32 31 32 33 29 29 37 35 24 1 2 3 3 1 3 2 7 7 2 1 1 2 3 4 2 3 4 3 3 3 4 3 3 2 5 13 14 14 14 10 11 10 13 15 15 12 5 11 11 11 12
35 32 30 30 30 27 27 30 35 33 18 6 2 1 2 4 6 9 3 1 1 0 0 2 1 3 2 2 2 2 1 2 2 2 4 3 4 15 20 23 21 19 16 14 13 11 9 4 10 10 5 6 10 12
31 28 27 26 24 27 31 34 30 26 5 3 4 2 4 5 4 1 1 1 1 2 2 3 4 3 3 2 2 2 1 2 2 2 2 3 3 18 22 17 9 3 7 8 13 11 10 4 12 7 5 9 9 13
27 26 23 20 25 30 33 27 20 14 5 5 4 3 3 2 2 4 4 2 1 3 2 3 3 4 3 3 2 0 1 1 4 5 4 6 10 21 20 28 27 25 25 18 15 16 16 4 8 11 10 10 9 15
25 23 16 21 28 31 27 21 17 10 3 3 1 2 4 6 7 6 7 4 6 6 3 9 6 3 2 1 2 2 6 5 4 5 4 6 15 20 22 22 25 25 28 26 24 17 17 17 27 23 16 20 16 18
23 15 15 24 30 25 22 23 22 11 5 3 5 8 6 5 5 3 8 6 6 7 11 7 4 3 2 4 4 7 6 4 6 6 6 11 18 18 18 17 19 22 24 24 25 23 22 24 22 29 25 19 18 19
19 10 17 28 26 21 17 20 20 14 5 4 5 6 5 5 5 7 6 5 6 9 5 3 1 2 4 4 4 4 7 6 6 5 6 10 13 15 16 16 17 16 16 17 17 17 18 23 20 19 23 21 24 25
13 5 18 25 23 18 14 15 16 8 5 4 6 5 8 6 11 11 10 8 10 7 1 3 6 6 8 4 7 7 4 7 4 3 6 7 12 13 13 13 14 14 14 14 18 19 20 20 19 18 23 24 25 25
5 7 18 21 18 14 17 10 7 5 4 4 3 3 3 3 6 9 10 11 12 8 5 4 7 6 4 5 6 5 5 4 5 5 5 9 10 11 10 11 15 18 19 20 20 20 18 19 22 24 16 19 23 24
3 13 15 18 16 9 7 8 4 4 4 2 3 5 3 5 8 8 9 9 8 5 5 5 4 6 5 5 4 4 2 2 4 6 6 8 10 14 16 14 19 20 20 20 20 20 22 21 18 14 17 15 22 22
11 10 13 15 13 4 3 4 4 3 2 0 1 1 1 2 7 12 10 13 10 6 3 3 5 4 3 2 4 6 5 4 4 4 6 12 13 14 15 18 19 19 19 19 19 16 16 18 15 15 15 17 19 18
4 6 10 10 9 3 2 2 2 2 2 1 1 2 2 3 6 9 11 9 6 4 7 5 3 3 2 3 3 4 5 5 3 4 6 7 11 13 16 14 13 13 14 15 15 16 12 13 15 15 15 16 17 17
3 5 5 7 3 5 3 1 2 2 2 0 1 2 2 2 3 7 8 7 6 4 4 3 2 3 4 3 5 5 7 7 4 4 3 5 10 11 13 14 14 14 13 13 11 11 13 11 10 12 14 17 17 17
5 7 4 3 3 2 2 2 2 1 0 1 0 2 1 2 2 3 3 5 4 3 2 2 2 3 2 3 6 7 6 6 5 5 6 6 5 7 10 13 13 13 14 14 14 12 10 9 10 12 14 15 15 16
5 4 2 3 1 3 1 0 0 1 1 2 1 1 1 1 2 1 2 2 1 1 3 3 4 3 3 4 2 5 8 6 6 7 7 7 6 6 7 9 10 10 10 12 11 10 10 10 12 12 12 11 11 12
4 3 3 2 2 1 1 1 1 1 1 1 1 1 1 2 2 2 1 1 2 3 3 6 5 3 1 2 5 7 8 5 4 5 6 6 5 5 6 7 8 9 8 9 9 9 9 9 8 10 10 10 11 11
2 4 3 4 1 2 2 2 1 0 1 0 1 1 1 1 1 1 1 1 2 3 4 5 2 2 2 2 2 4 6 7 8 8 8 6 6 4 3 3 4 5 5 5 5 6 6 7 7 6 6 6 6 6
3 2 2 1 1 2 2 2 2 2 1 1 1 1 0 1 1 2 1 1 1 2 3 4 3 2 1 1 2 3 5 6 7 9 7 7 7 6 5 4 6 5 6 4 3 1 2 3 4 4 5 4 3 4
1 1 1 0 0 1 1 1 1 2 2 2 1 2 1 1 2 2 2 4 3 2 1 1 2 3 2 2 3 3 4 5 4 2 3 5 6 7 7 7 7 9 10 6 5 3 1 1 3 5 6 6 5 6
1 3 2 3 2 2 2 1 2 2 2 2 2 3 2 3 3 3 4 6 6 3 2 2 2 2 3 4 3 2 3 6 4 1 3 0 5 8 9 8 8 8 6 5 5 4 3 3 3 4 4 5 5 6
2 2 3 3 2 3 4 4 3 3 4 4 3 3 3 2 1 4 4 6 7 5 4 4 2 3 4 4 3 3 4 7 10 9 7 4 6 8 11 10 9 8 4 3 4 4 3 3 3 3 3 4 4 4
2 4 2 2 3 4 2 5 2 2 3 2 2 1 1 2 2 4 5 7 7 7 4 4 4 4 2 2 1 1 2 3 5 6 5 5 6 8 9 10 11 9 4 2 2 3 3 2 3 4 5 4 5 5
3 4 3 3 3 2 1 2 2 2 2 3 2 2 1 1 2 4 7 8 7 4 5 4 3 2 2 2 2 3 2 3 1 1 1 2 3 5 7 7 8 8 6 4 2 2 3 5 5 5 5 6 6 7
3 5 2 3 2 2 2 2 2 2 2 2 2 3 2 1 2 2 2 7 6 5 4 4 3 3 2 1 3 3 3 2 3 2 1 2 4 5 5 5 5 6 5 4 3 3 4 4 4 5 5 6 7 8
2 3 3 2 2 2 3 3 2 2 2 2 2 2 3 2 1 2 1 6 3 2 3 6 5 5 5 4 6 5 3 3 6 4 4 5 7 10 9 7 4 3 4 4 4 5 5 5 6 7 8 8 8 10
Wind_Direction
323 323 322 321 321 322 324 326 326 327 326 325 319 310 304 295 298 283 243 218 217 250 269 256 268 259 255 237 235 273 308 176 253 221 216 224 255 262 272 262 248 220 201 199 221 241 243 275 293 242 0 311 310 307
324 323 323 322 321 322 325 327 325 325 326 326 317 310 306 302 293 290 239 241 234 228 255 274 271 262 254 249 242 214 246 238 259 254 260 307 259 249 267 270 265 245 234 245 224 221 256 299 299 312 324 309 308 299
324 324 323 322 320 322 325 327 325 324 326 326 318 312 313 305 299 283 255 231 201 256 274 260 249 269 248 236 228 230 216 228 234 229 315 274 248 252 242 251 266 266 258 244 261 257 263 270 286 283 297 288 295 296
323 321 320 320 320 323 326 325 324 323 326 327 317 317 312 309 300 283 254 232 207 222 273 283 297 268 277 230 211 215 227 219 268 165 212 231 243 209 244 264 262 251 302 269 272 274 277 273 271 279 279 284 291 310
322 321 321 320 320 323 327 325 323 324 327 328 327 320 318 311 296 275 263 254 234 184 268 295 306 269 285 218 207 205 213 227 234 225 225 238 217 245 236 258 247 224 225 216 245 256 306 290 302 307 282 273 278 309
322 322 322 321 321 323 326 324 324 326 329 328 325 324 321 305 276 270 329 250 219 213 279 281 305 282 302 181 194 196 202 211 212 213 233 231 236 223 251 249 239 219 230 241 254 263 281 275 294 285 266 241 200 241
323 323 322 322 323 325 325 324 327 330 332 329 328 326 315 215 204 179 202 174 179 189 242 285 286 274 300 207 156 179 189 193 202 218 228 245 244 208 239 254 254 249 259 267 257 270 276 262 262 262 251 211 155 188
324 323 323 323 324 325 325 326 329 335 329 330 334 356 58 140 197 247 273 245 178 154 6 281 278 302 10 266 224 170 164 194 202 232 232 234 220 211 248 245 264 248 237 250 251 248 245 266 284 208 249 195 134 128
325 324 324 327 328 327 326 332 334 332 334 338 53 123 90 87 102 336 338 162 135 117 266 263 287 308 357 265 264 174 167 193 231 220 237 257 204 237 256 267 262 252 231 236 253 227 241 241 247 235 221 150 138 114
326 326 330 332 331 334 341 338 335 337 349 11 79 268 52 35 325 134 79 105 21 360 218 257 228 266 307 276 281 316 357 344 281 276 326 264 266 263 273 267 262 263 254 235 226 240 222 243 231 223 172 119 125 117
330 335 338 336 340 342 342 339 339 346 30 36 23 23 330 353 176 81 40 14 16 286 224 253 233 269 199 258 299 31 354 335 302 318 321 311 294 320 333 47 15 37 185 162 171 140 104 346 130 70 98 106 83 91
339 342 340 346 343 343 345 347 348 360 7 329 296 313 333 5 22 357 2 322 346 300 278 279 290 206 260 226 276 49 15 302 1 340 351 353 334 344 20 39 34 41 46 70 101 111 120 183 104 96 93 87 95 105
344 346 349 349 347 351 349 356 3 359 41 94 72 49 24 11 22 12 346 330 320 324 315 326 323 336 295 256 289 316 9 21 314 20 19 351 344 7 25 35 32 33 39 40 46 51 72 70 59 52 54 55 60 75
347 352 351 355 356 355 358 13 17 21 32 45 34 19 36 2 357 315 305 297 286 287 308 319 311 3 349 3 6 354 3 28 26 23 15 346 353 5 21 31 35 27 27 32 41 43 51 61 58 55 46 49 59 57
351 353 358 358 357 0 14 15 16 18 51 51 40 31 3 326 304 314 284 278 310 310 316 331 339 355 15 37 13 7 14 43 35 29 3 348 353 1 8 14 21 30 29 27 35 39 53 60 67 62 54 52 58 60
355 357 356 353 359 17 23 17 12 17 47 56 43 356 331 344 3 0 353 346 344 329 21 17 18 20 32 17 4 27 10 29 34 4 13 349 359 8 7 15 21 25 35 45 46 47 54 59 65 74 63 54 58 63
14 2 351 352 356 17 22 14 20 44 51 43 7 1 343 339 340 350 355 350 337 15 42 39 44 5 331 23 15 5 27 5 356 9 356 12 19 12 14 26 28 34 34 33 38 42 56 69 68 59 57 55 64 65
9 354 354 353 352 355 16 28 64 59 52 32 23 26 23 27 359 5 351 358 10 16 18 43 44 22 40 11 356 339 327 330 39 25 28 24 22 22 36 37 33 33 36 41 46 46 41 43 53 56 66 68 67 60
331 349 358 358 1 19 37 40 43 96 87 150 312 297 53 21 20 10 12 9 18 30 73 59 59 23 4 336 326 346 342 359 9 30 43 31 28 32 37 42 41 39 42 38 36 41 49 48 44 42 50 55 62 59
338 335 347 357 12 39 67 45 36 110 168 136 212 360 35 54 19 24 23 15 18 29 42 52 38 354 325 357 333 336 345 340 350 55 57 42 30 32 35 37 32 25 30 31 36 37 38 51 53 61 65 66 66 63
355 344 340 11 31 53 75 38 78 31 121 182 345 325 323 5 36 35 30 11 46 37 57 33 19 358 333 335 0 354 19 19 37 26 11 28 27 33 36 28 22 24 24 21 19 24 34 45 51 62 71 75 79 81
341 343 355 15 56 48 86 31 42 90 112 41 358 342 26 31 25 32 341 36 46 18 353 323 333 331 353 21 9 17 8 11 32 66 54 43 38 34 31 23 21 20 15 8 5 16 36 56 72 76 76 75 71 64
356 4 25 12 106 47 83 360 167 33 344 12 338 20 43 32 22 294 70 15 45 4 323 296 304 314 332 1 55 45 35 34 36 27 20 30 43 41 47 45 35 27 24 20 14 27 49 62 66 69 67 61 56 50
9 36 32 33 26 360 305 69 70 89 98 39 36 10 3 4 353 67 67 321 330 318 4 0 342 303 264 4 29 21 13 8 14 19 6 347 360 32 29 37 35 31 23 28 45 59 69 63 50 45 40 38 37 36
35 358 37 342 30 352 25 21 38 76 342 232 330 294 29 338 53 39 340 291 304 333 359 353 5 7 335 354 22 28 19 14 7 355 6 350 333 318 343 17 43 36 20 34 45 55 53 50 46 47 52 50 46 38
73 358 59 11 3 349 359 328 347 336 293 252 45 101 18 52 332 308 243 226 257 313 344 359 347 330 302 341 355 17 12 1 349 345 2 2 357 348 353 353 350 23 7 343 322 5 75 61 54 40 36 37 47 18
82 212 143 39 230 200 246 233 270 259 248 226 182 181 194 288 256 225 209 211 226 232 324 352 314 290 306 126 101 65 38 27 25 42 54 44 42 36 27 6 348 338 333 322 319 319 347 42 13 11 16 29 32 10
238 168 218 164 214 216 252 226 236 233 211 167 183 204 223 216 231 186 195 185 202 194 128 83 80 120 134 122 96 55 43 29 34 275 244 73 47 36 20 8 358 359 23 42 55 45 20 3 1 9 23 15 6 360
218 186 178 221 203 220 233 218 226 208 178 184 209 205 224 213 253 198 198 196 190 170 168 159 127 136 135 130 111 78 52 31 16 19 30 30 17 12 0 356 347 348 348 7 10 16 28 45 63 40 10 355 352 352
200 176 207 212 216 235 234 195 227 143 184 171 136 155 236 241 232 204 188 196 205 210 211 173 160 176 203 231 234 160 84 57 43 30 31 33 23 4 3 1 1 359 349 356 16 102 85 45 9 358 0 360 2 352
134 182 234 228 251 240 334 142 118 120 169 203 220 229 245 290 235 218 211 224 227 196 159 151 149 175 243 276 292 311 282 197 152 125 56 6 349 355 3 360 0 6 19 39 49 41 10 359 3 12 21 14 5 354
193 212 223 243 247 54 164 208 211 225 198 213 224 199 182 218 272 135 212 181 172 177 178 143 116 80 131 53 355 323 232 201 190 202 256 305 330 336 338 338 353 2 8 12 8 3 3 1 359 352 349 353 354 349
225 209 220 259 252 237 188 200 210 268 236 254 254 215 222 218 293 79 94 189 203 171 136 136 127 118 99 53 15 3 350 217 207 229 271 303 316 320 317 313 283 324 352 352 355 355 357 350 343 349 349 348 347 347